Weather History for KDXR - May, 2013

Change the Weather History Date:

Wednesday, May 1, 2013

  Actual Average Record
Temperature  
Mean Temperature 50 °F -  
Max Temperature 66 °F 69 °F 86 °F (1993)
Min Temperature 34 °F 44 °F 27 °F (2008)
Degree Days  
Heating Degree Days 15    
Moisture  
Dew Point 34 °F    
Average Humidity 56    
Maximum Humidity 85    
Minimum Humidity 26    
Precipitation  
Precipitation 0.00 in - - ()
Sea Level Pressure  
Sea Level Pressure 30.44 in    
Wind  
Wind Speed 2 mph (SE)    
Max Wind Speed 12 mph    
Max Gust Speed 17 mph    
Visibility 10 miles    
Events      
Averages and records for this station are not official NWS values.
T = Trace of Precipitation, MM = Missing Value Source: NWS Daily Summary

Daily Weather History Graph

Daily Weather History Graph

Search for Another Location

Airport or City:

Trip Planner

Search our weather history database for the weather conditions in past years. The results will help you decide how hot, cold, wet, or windy it might be!

Date:

Astronomy

May. 01, 2013 Rise Set
Actual Time 5:50 AM EDT 7:51 PM EDT
Civil Twilight 5:20 AM EDT 8:21 PM EDT
Nautical Twilight 4:44 AM EDT 8:58 PM EDT
Astronomical Twilight 4:04 AM EDT 9:39 PM EDT
Moon 12:59 AM EDT (5/1) 11:26 AM EDT (5/1)
Length of Visible Light 15h 01m
Length of Day
14h 00m
Waning Gibbous, 59% of the Moon is Illuminated
May 1
Waning Gibbous
May 2
Last Quarter
May 9
New
May 18
First Quarter
May 25
Full

Hourly Weather History & Observations

Time (EDT) Temp. Dew Point Humidity Pressure Visibility Wind Dir Wind Speed Gust Speed Precip Events Conditions
12:53 AM 39.9 °F 32.0 °F 73% 30.36 in 10.0 mi Calm Calm - N/A   Clear
1:53 AM 39.0 °F 30.9 °F 73% 30.38 in 10.0 mi Calm Calm - N/A   Clear
2:53 AM 37.9 °F 30.9 °F 76% 30.38 in 10.0 mi Calm Calm - N/A   Clear
3:53 AM 36.0 °F 30.9 °F 82% 30.39 in 10.0 mi Calm Calm - N/A   Clear
4:53 AM 34.0 °F 30.0 °F 85% 30.40 in 10.0 mi Calm Calm - N/A   Clear
5:53 AM 34.0 °F 28.9 °F 82% 30.41 in 10.0 mi Calm Calm - N/A   Clear
6:53 AM 37.9 °F 32.0 °F 79% 30.44 in 10.0 mi Calm Calm - N/A   Clear
7:53 AM 46.9 °F 34.0 °F 61% 30.45 in 10.0 mi Calm Calm - N/A   Clear
8:53 AM 54.0 °F 30.9 °F 41% 30.45 in 10.0 mi Variable 3.5 mph - N/A   Clear
9:53 AM 57.9 °F 30.0 °F 35% 30.46 in 10.0 mi East 6.9 mph - N/A   Clear
10:53 AM 62.1 °F 30.0 °F 30% 30.46 in 10.0 mi NE 9.2 mph - N/A   Clear
11:53 AM 64.0 °F 28.0 °F 26% 30.45 in 10.0 mi Variable 5.8 mph 17.3 mph N/A   Clear
12:53 PM 66.0 °F 34.0 °F 30% 30.44 in 10.0 mi NE 8.1 mph - N/A   Clear
1:53 PM 64.9 °F 39.0 °F 39% 30.44 in 10.0 mi SSE 9.2 mph 16.1 mph N/A   Clear
2:53 PM 64.9 °F 39.0 °F 39% 30.43 in 10.0 mi SSE 8.1 mph - N/A   Clear
4:53 PM 64.0 °F 39.9 °F 41% 30.43 in 10.0 mi SE 11.5 mph - N/A   Clear
5:53 PM 63.0 °F 39.0 °F 41% 30.44 in 10.0 mi South 6.9 mph - N/A   Clear
6:53 PM 61.0 °F 35.1 °F 38% 30.45 in 10.0 mi SSE 8.1 mph - N/A   Clear
7:53 PM 59.0 °F 39.0 °F 48% 30.46 in 10.0 mi SSE 4.6 mph - N/A   Clear
8:53 PM 55.0 °F 37.9 °F 53% 30.48 in 10.0 mi SSE 4.6 mph - N/A   Clear
9:53 PM 53.1 °F 39.9 °F 61% 30.50 in 10.0 mi Calm Calm - N/A   Clear
10:53 PM 52.0 °F 41.0 °F 66% 30.49 in 10.0 mi Calm Calm - N/A   Clear
11:53 PM 45.0 °F 39.9 °F 82% 30.49 in 10.0 mi Calm Calm - N/A   Clear